16:19
Airports
History
Links
Donate
Help keep this website running!
PayPal
Bitcoin
This page is community maintained. The information is intended for PC simulator navigation or reference.
Always use approved charts for navigation.
YTMU
TumutEdited 30-Jun-2011
Tumut (YTMU)
Bombowlee, New South Wales, Australia (2720)
(C)
Lat/Lng:35° 16' 5.57" S / 148° 14' 25.81" E
-35.268214 / 148.240503
Elevation:877'ft / 267mMSL
ID / ICAO:YTMU
Runways:1
Longest:17-35
Asphalt 1,062m / 3,485ft
Controlled:Yes
(Edited 2011-06-30) [ Sign in to Edit ]
Nearby Weather16:12 GMT 2017-10-19
Nearby weather at YSWG, Wagga Wagga located 44.2 nautical miles from YTMU
Altimeter: 30.06
Visibility: 6.2 statute miles
Wind: 1 knots (from 190°)
Temp: 18°c / 64°f
Humidity: 93.9%

METAR: YSWG 191612Z AUTO 19001KT 9999 // OVC022 18/17 Q1018

(Powered by phpweather)
Airport Radio Frequencies
TUMUT MULT: 126.7
Tower: 119.5
Runway 17 / 35
Dimensions:1062.2 x 18m 3485' x 59'ft
Surface:Asphalt
Runway 17 [A]Runway 35 [B]
Heading:181°TH 001°TH
Lat:
Lng:
35° 15' 48.39"S
148° 14' 26.53"E
35° 16' 22.75"S
148° 14' 25.09"E
User Notes and Comments
35° 16' 5.57" S / 148° 14' 25.81" E
Distance To
Airport ID:
Nearby Airports
4 Cleveden 7.5 NM
YCVD NNW 347°
4 TALBINGO 22.0 NM
YTBG S 172°
4 ERINGOARRAH 34.2 NM
YERI WNW 294°
4 Tumbarumba 39.5 NM
YTBM SSW 210°
(C) Wagga Wagga 44.2 NM
YSWG ( WX ) W 279°
4 HAREFIELD 45.1 NM
YHAF WNW 298°
(U) Cootamundra 46.1 NM
YCTM NNW 345°
VFR Chart
Flight Planning at SkyVector.com